[[{"header":{"parameterUnit":"m.s-1","parameterCategory":1,"la1":30.2991,"la2":30.254,"lo1":-89.0895,"lo2":-89.0444,"dy":0.0017,"dx":0.0017,"nx":28,"ny":28,"refTime":"2024-03-19T09:00:00:Z","depth":0,"parameterNumber":2,"parameterNumberName":"U-component_of_WINDS"},"data":[0,0,0,0,0,0,0,0,0,0,0,0,0,0,0,0,0,0,0,0,0,0,0,0,0,0,0,0,0,0,0,0,0,0,0,0,0,0,0,0,0,0,0,0,0,0,0,0,0,0,0,0,0,0,0,0,0,0,0.9925,0.9925,0,0.9949,0.9949,0.995,0.9947,0.9947,0.9946,0.9946,0.997,0.9971,0.9972,0,0,0,0,0,0,0,0,0,0,0,0,0,0.9874,0.9875,0.9925,0.9925,0.9925,0.9949,0.9949,0.995,0.9947,0.9947,0.9946,0.9946,0.997,0.9971,0.9972,0,0,0,0,0,0,0,0,0,0,0,0,0,0.9897,0.9875,0.9925,0.9927,0.9927,0.9949,0.9949,0.995,0.9947,0.9947,0.9946,0.9946,0.997,0.9971,0.9973,0.9993,0,0,0.9977,0.9978,0,0,0,0,0,0,0,0,0.9896,0.9899,0.9926,0.9927,0.9927,0.9944,0.994,0.9964,0.9947,0.994,0.9946,0.9945,0.9962,0.9964,0.997,0.9995,0.9996,0.9977,0.9978,0.9979,0.9979,0,0,0,0,0,0,0,0.9894,0.9898,0.9934,0.9927,0.9927,0.9926,0.9929,0.9945,0.9954,0.994,0.994,0.9943,0.9962,0.9969,0.9971,0.9996,0.9977,0.9979,0.998,0.998,1.0036,1.0036,0,0,0,0,0,0,0.9892,0.9896,0.9934,0.9935,0.991,0.9927,0.993,0.994,0.9954,0.9955,0.9944,0.9943,0.9966,0.9969,0.9972,0.9995,0.9979,0.998,0.9981,1.0035,1.0036,1.0037,0,0,0,0,0,0,0.9891,0.9895,0.9933,0.9916,0.992,0.9929,0.9939,0.994,0.9947,0.9956,0.9958,0.9948,0.9966,0.9969,0.9987,0.9996,0.9981,0.9982,1.0035,1.0035,1.0036,1.0043,0,0,0,0,0,0,0.9889,0.9895,0.9904,0.9916,0.9921,0.9949,0.994,0.9941,0.9949,0.9949,0.9961,0.9963,0.9966,0.9985,0.9989,0.9998,0.9984,1.0034,1.0035,1.0036,1.0042,1.0044,1.0046,0,0,0,0,0,0.9888,0.9905,0.9904,0.9909,0.9932,0.9949,0.9952,0.9956,0.995,0.9958,0.9964,0.9962,0.9994,0.9987,0.9991,1.0,1.0033,1.0035,1.0036,1.0041,1.0044,1.0046,0,0,0,0,0,0,0.9894,0.9907,0.9906,0.9928,0.9938,0.9949,0.996,0.9959,0.997,0.9969,0.9972,0.9975,0.9993,0.9999,0.999,1.002,1.0013,1.0015,1.0016,1.0018,1.002,1.0017,0.9985,0,0,0,0,0,0.9898,0.9911,0.9922,0.994,0.9945,0.9951,0.9959,0.996,0.997,0.9974,0.9982,0.9991,1.0003,1.0011,1.0023,1.0043,1.0045,1.0051,1.0053,1.0054,1.0056,1.0065,1.0067,1.0041,1.0041,1.0041,0,0,0.9907,0.9915,0.9923,0.9941,0.9949,0.9961,0.9955,0.9969,0.9978,0.9977,0.9994,0.9999,1.001,1.0028,1.0037,1.0033,1.0064,1.0056,1.0057,1.0058,1.0066,1.0069,1.0071,1.0042,1.0041,1.0041,0,0,0.9928,0.9937,0.9952,0.9959,0.997,0.9974,0.9978,0.9989,0.9992,1.0009,1.0007,1.0018,1.0039,1.0046,1.0052,1.0074,1.0072,1.0077,1.0086,1.0095,1.0097,1.0099,1.0105,1.0107,1.0079,1.0079,1.0079,0,0.9937,0.9956,0.996,0.9973,0.998,0.9979,0.9993,1.0,1.0015,1.0019,1.0015,1.004,1.0048,1.0067,1.0071,1.0077,1.008,1.0076,1.0097,1.0099,1.01,1.0106,1.0108,1.008,1.0079,1.0079,1.0079,0,0.9966,0.9979,0.999,1.0003,1.0011,1.0025,1.0029,1.0037,1.0038,1.0042,1.0058,1.0066,1.0078,1.0083,1.0084,1.0102,1.0099,1.0096,1.0089,1.0103,1.0108,1.0111,1.008,1.008,1.008,1.008,0,0,0.9993,1.0006,1.001,1.0015,1.0026,1.0036,1.0049,1.0061,1.0066,1.0076,1.0086,1.0103,1.0099,1.0106,1.0108,1.0116,1.013,1.0111,1.0112,1.0113,1.0147,1.0149,1.0151,1.0129,1.0129,1.0129,1.0146,0,1.0014,1.0037,1.0039,1.006,1.0071,1.0069,1.008,1.0087,1.0091,1.01,1.0104,1.0115,1.0111,1.0114,1.0122,1.0126,1.0136,1.0125,1.0137,1.0137,1.0133,1.0154,1.0157,1.0172,1.0148,1.0149,1.0149,0,1.0042,1.0051,1.0073,1.008,1.0085,1.0095,1.0104,1.0114,1.0122,1.0124,1.013,1.013,1.0142,1.0135,1.0151,1.0143,1.0148,1.0151,1.0151,1.0152,1.0143,1.0154,1.0177,1.0179,1.0152,1.0152,1.0152,0,1.0057,1.0075,1.009,1.0094,1.0104,1.0111,1.0115,1.0122,1.0128,1.0137,1.014,1.015,1.0155,1.0162,1.0164,1.0159,1.018,1.0173,1.018,1.018,1.0184,1.0184,1.0207,1.0189,1.0189,1.0189,1.0189,0,1.008,1.0093,1.0096,1.0105,1.0119,1.0121,1.0134,1.0138,1.0144,1.0152,1.0151,1.016,1.0162,1.0171,1.0172,1.0184,1.0187,1.0188,1.0188,1.0187,1.0187,1.019,1.0189,1.019,1.019,1.019,1.0189,0,1.0099,1.0103,1.0118,1.0125,1.0127,1.0137,1.0142,1.015,1.0153,1.0164,1.0167,1.0171,1.018,1.0183,1.0195,1.0196,1.0209,1.0209,1.0206,1.0206,1.0213,1.0212,1.0238,1.0241,1.0222,1.0222,1.0223,0,1.0113,1.0123,1.013,1.0136,1.014,1.015,1.0155,1.0157,1.0163,1.0171,1.0178,1.0187,1.0194,1.0209,1.0213,1.0222,1.0221,1.0229,1.0222,1.0221,1.0219,1.0218,1.0219,1.0231,1.0231,1.0231,1.0231,0,1.0136,1.0137,1.0146,1.0154,1.0161,1.0167,1.0174,1.0179,1.0181,1.0188,1.0197,1.0203,1.0214,1.0222,1.023,1.0234,1.0233,1.0233,1.0235,1.0234,1.0232,1.0232,1.0209,1.0233,1.0232,1.0232,1.0232,1.0232,1.0152,1.016,1.0166,1.0175,1.0179,1.0185,1.0192,1.0195,1.0203,1.0212,1.0212,1.0222,1.0228,1.0239,1.0243,1.025,1.0247,1.025,1.0251,1.0252,1.0251,1.0231,1.0251,1.0251,1.0251,1.0251,1.0251,0,1.0174,1.0178,1.0186,1.0194,1.0201,1.0198,1.0205,1.021,1.0219,1.0225,1.0231,1.0241,1.0249,1.0253,1.0261,1.0266,1.0265,1.0267,1.0267,1.0267,1.0254,1.0251,1.0268,1.0268,1.0268,1.0268,1.0268,1.0268,1.0186,1.0198,1.0199,1.0213,1.0216,1.0225,1.0229,1.0234,1.0238,1.0249,1.0255,1.0257,1.0262,1.027,1.0276,1.0277,1.028,1.0282,1.0283,1.027,1.0268,1.0267,1.0264,1.0283,1.0283,1.0295,1.0295,1.0295]},{"header":{"parameterUnit":"m.s-1","parameterCategory":1,"la1":30.2991,"la2":30.254,"lo1":-89.0895,"lo2":-89.0444,"dy":0.0017,"dx":0.0017,"nx":28,"ny":28,"refTime":"2024-03-19T09:00:00:Z","depth":0,"parameterNumber":3,"parameterNumberName":"V-component_of_WINDS"},"data":[0,0,0,0,0,0,0,0,0,0,0,0,0,0,0,0,0,0,0,0,0,0,0,0,0,0,0,0,0,0,0,0,0,0,0,0,0,0,0,0,0,0,0,0,0,0,0,0,0,0,0,0,0,0,0,0,0,0,1.4011,1.4011,0,1.4064,1.4064,1.4065,1.4042,1.404,1.4039,1.4038,1.4091,1.4094,1.4096,0,0,0,0,0,0,0,0,0,0,0,0,0,1.3887,1.389,1.4011,1.4011,1.4012,1.4063,1.4064,1.4065,1.4042,1.404,1.4039,1.4037,1.409,1.4093,1.4097,0,0,0,0,0,0,0,0,0,0,0,0,0,1.394,1.389,1.4011,1.4007,1.4007,1.4063,1.4064,1.4065,1.4042,1.404,1.4038,1.4037,1.4089,1.4093,1.4097,1.416,0,0,1.4109,1.4111,0,0,0,0,0,0,0,0,1.3937,1.3945,1.4007,1.4007,1.4007,1.4044,1.404,1.4097,1.4043,1.4029,1.4038,1.4036,1.4077,1.4082,1.4096,1.4163,1.4165,1.4109,1.4112,1.4114,1.4115,0,0,0,0,0,0,0,1.3934,1.3943,1.4032,1.4008,1.4008,1.4001,1.4007,1.4051,1.4063,1.403,1.4028,1.4035,1.4077,1.4092,1.4097,1.4166,1.4109,1.4113,1.4115,1.4117,1.4283,1.4285,0,0,0,0,0,0,1.393,1.394,1.403,1.4033,1.3967,1.4005,1.4011,1.4034,1.4063,1.4065,1.4037,1.4034,1.4087,1.4093,1.4099,1.4173,1.4113,1.4117,1.4119,1.4281,1.4284,1.4286,0,0,0,0,0,0,1.3928,1.3939,1.4028,1.3986,1.3997,1.4009,1.4035,1.4036,1.4052,1.4068,1.407,1.405,1.4085,1.4093,1.4144,1.4174,1.4119,1.4123,1.4279,1.4282,1.4285,1.4322,0,0,0,0,0,0,1.3924,1.3938,1.3963,1.3987,1.3999,1.4073,1.4037,1.4039,1.4059,1.4055,1.4081,1.4083,1.4084,1.4139,1.4148,1.4179,1.4126,1.4276,1.428,1.4284,1.4318,1.4326,1.4332,0,0,0,0,0,1.392,1.3972,1.3964,1.3975,1.4031,1.4075,1.4082,1.4083,1.4061,1.4086,1.4095,1.4082,1.4169,1.4144,1.4155,1.4187,1.4274,1.4279,1.4283,1.4315,1.4324,1.4332,0,0,0,0,0,0,1.3952,1.3975,1.3967,1.4028,1.405,1.4071,1.4102,1.4093,1.4121,1.4117,1.4116,1.4122,1.4174,1.4186,1.4157,1.4247,1.4218,1.4225,1.4238,1.4248,1.4255,1.4251,1.4129,0,0,0,0,0,1.3965,1.4,1.4018,1.407,1.4082,1.409,1.411,1.4108,1.413,1.4139,1.4153,1.4175,1.4206,1.4228,1.4258,1.4319,1.4323,1.4346,1.4353,1.4359,1.4365,1.4396,1.4406,1.4301,1.4301,1.4301,0,0,1.3995,1.4012,1.4034,1.4077,1.4094,1.4128,1.4098,1.4137,1.4162,1.4145,1.4194,1.4204,1.4228,1.4284,1.4309,1.4295,1.4395,1.4365,1.437,1.4372,1.4402,1.4411,1.442,1.4304,1.4304,1.4303,0,0,1.4066,1.4083,1.4127,1.4144,1.4169,1.4174,1.4184,1.4207,1.4213,1.4261,1.4248,1.4278,1.4334,1.4351,1.4367,1.4441,1.4429,1.4451,1.4489,1.4518,1.4527,1.4534,1.4559,1.4568,1.4457,1.4457,1.4457,0,1.4099,1.4152,1.4151,1.419,1.4208,1.4193,1.4237,1.4253,1.4287,1.43,1.4283,1.4351,1.4366,1.4424,1.4442,1.4456,1.4467,1.4448,1.4526,1.4533,1.454,1.4563,1.4573,1.4459,1.4459,1.4459,1.4458,0,1.419,1.4227,1.4259,1.4291,1.4313,1.4355,1.4359,1.4381,1.4376,1.4382,1.443,1.4448,1.4481,1.4494,1.4491,1.4551,1.4541,1.4526,1.4496,1.4552,1.4574,1.4583,1.4462,1.4462,1.4461,1.446,0,0,1.4284,1.4314,1.4325,1.4339,1.4364,1.4392,1.4431,1.4463,1.4481,1.4504,1.4536,1.4582,1.4566,1.4584,1.4582,1.4609,1.4664,1.4589,1.459,1.4601,1.4729,1.474,1.4751,1.4656,1.4658,1.4659,1.4727,0,1.4356,1.4426,1.4424,1.4488,1.4521,1.4506,1.454,1.4558,1.4564,1.4592,1.4598,1.463,1.4608,1.4619,1.4644,1.4652,1.4689,1.4647,1.4685,1.4686,1.4679,1.4763,1.4776,1.4838,1.4735,1.4737,1.4738,0,1.445,1.4475,1.4542,1.456,1.4574,1.4604,1.4632,1.4659,1.4678,1.4681,1.4699,1.4692,1.4731,1.47,1.4752,1.4723,1.4738,1.4744,1.4746,1.4749,1.4715,1.4767,1.4859,1.4868,1.4752,1.4751,1.475,0,1.451,1.456,1.4606,1.4618,1.4641,1.4663,1.4673,1.4691,1.4709,1.4732,1.4744,1.4772,1.4787,1.4808,1.4808,1.4786,1.4859,1.4829,1.4861,1.4861,1.4878,1.4876,1.4972,1.4889,1.4889,1.4888,1.4888,0,1.459,1.4631,1.4633,1.4661,1.4706,1.4704,1.4748,1.4756,1.4771,1.48,1.4789,1.4815,1.4814,1.4841,1.4841,1.4883,1.489,1.4892,1.4891,1.4893,1.4892,1.4902,1.4898,1.4891,1.489,1.489,1.4889,0,1.4664,1.4668,1.4716,1.4733,1.4738,1.477,1.4784,1.481,1.4814,1.485,1.4859,1.4865,1.4896,1.4898,1.4933,1.4933,1.4983,1.4978,1.4977,1.4975,1.5007,1.5003,1.5111,1.5124,1.5034,1.5035,1.5035,0,1.4715,1.4746,1.4765,1.4783,1.4795,1.4825,1.4842,1.484,1.4859,1.4882,1.4905,1.4934,1.4958,1.5007,1.5014,1.5041,1.5036,1.5072,1.504,1.5039,1.5035,1.5033,1.5035,1.5078,1.5079,1.508,1.5081,0,1.4804,1.4803,1.4829,1.4856,1.4877,1.4898,1.4917,1.4932,1.4932,1.4954,1.4984,1.5003,1.5038,1.5067,1.5092,1.5101,1.5091,1.509,1.5099,1.51,1.5097,1.5098,1.4992,1.5088,1.5087,1.5087,1.5086,1.5086,1.4867,1.4893,1.491,1.4939,1.4953,1.497,1.4995,1.5001,1.5027,1.5055,1.5052,1.5086,1.5102,1.5135,1.5146,1.5172,1.516,1.5172,1.5175,1.5178,1.5181,1.5094,1.5177,1.5176,1.5176,1.5176,1.5176,0,1.4954,1.4963,1.499,1.5016,1.5039,1.5026,1.5046,1.5065,1.5095,1.5111,1.5134,1.5168,1.5195,1.5204,1.5229,1.5248,1.5243,1.5255,1.5253,1.5255,1.5191,1.5181,1.5258,1.5258,1.5258,1.5258,1.5258,1.5258,1.5002,1.5044,1.5045,1.5093,1.5102,1.5135,1.5147,1.5163,1.5175,1.5214,1.5236,1.5241,1.5254,1.528,1.5304,1.5305,1.5315,1.5328,1.5328,1.5268,1.526,1.5252,1.5242,1.5331,1.5331,1.5389,1.539,1.539]}]]